This demonstration page uses our WeatherBlox Daily Observations layout. Learn more.

Left ArrowRight Arrow

41.55636, -103.73856

Hourly Observations for August 17, 2021

Temp ( °F °C ) Dew Point ( °F °C ) Humidity (%) Winds ( mph kmh ) Pressure ( in mb ) Visibility ( mi km ) Precip ( " mm )
12:58 am 00:58 Clear 73 22.5 41 4.8 32 32 SSW 18 30 29.76 1008 10 16 0.00 0.00
1:58 am 01:58 Clear 73 22.6 40 4.3 30 30 SSW 17 28 29.75 1008 10 16 0.00 0.00
2:58 am 02:58 Clear 71 21.9 39 3.7 30 30 SSW 21 33 29.74 1007 10 16 0.00 0.00
3:58 am 03:58 Clear 71 21.7 38 3.6 31 31 SSW 22 35 29.73 1007 10 16 0.00 0.00
4:58 am 04:58 Clear 67 19.6 39 3.8 35 35 SW 13 20 29.73 1007 10 16 0.00 0.00
5:58 am 05:58 Clear 65 18.5 39 4 38 38 SW 9 15 29.74 1007 10 16 0.00 0.00
6:58 am 06:58 Sunny 68 20 37 2.7 32 32 W 3 6 29.75 1008 10 16 0.00 0.00
7:58 am 07:58 Sunny 70 21.3 40 4.7 34 34 WSW 5 7 29.76 1008 10 16 0.00 0.00
8:58 am 08:58 Sunny 77 25 37 3 24 24 SE 6 9 29.75 1007 10 16 0.00 0.00
9:58 am 09:58 Sunny 85 29.3 41 5.1 21 21 E 5 7 29.72 1007 10 16 0.00 0.00
10:58 am 10:58 Sunny 92 33.1 39 4 16 16 N 6 9 29.71 1006 10 16 0.00 0.00
11:58 am 11:58 Sunny 95 34.8 31 -0.4 10 10 S 14 22 29.68 1005 10 16 0.00 0.00
12:58 pm 12:58 Sunny 96 35.3 32 -0.2 10 10 SSW 13 20 29.67 1005 10 16 0.00 0.00
1:58 pm 13:58 Sunny 97 35.9 35 1.6 11 11 SSW 15 24 29.65 1004 10 16 0.00 0.00
2:58 pm 14:58 Mostly Sunny 97 36 33 0.4 10 10 SSW 16 26 29.63 1004 10 16 0.00 0.00
3:58 pm 15:58 Sunny 97 35.9 33 0.7 11 11 SSW 18 30 29.62 1003 10 16 0.00 0.00
4:58 pm 16:58 Mostly Sunny 92 33.4 32 -0.2 12 12 S 16 26 29.63 1004 10 16 0.00 0.00
5:58 pm 17:58 Mostly Sunny 91 32.5 32 0.1 12 12 S 16 26 29.63 1004 10 16 0.00 0.00
6:58 pm 18:58 Sunny 88 31 31 -0.5 13 13 SW 22 35 29.65 1004 10 16 0.00 0.00
7:58 pm 19:58 Mostly Cloudy 86 30.1 38 3.3 18 18 S 21 33 29.65 1004 10 16 0.00 0.00
8:58 pm 20:58 Mostly Cloudy 84 29 40 4.7 21 21 S 26 43 29.67 1005 10 16 0.00 0.00
9:58 pm 21:58 Mostly Clear 81 27.3 41 5.2 24 24 SSW 18 30 29.70 1006 10 16 0.00 0.00
10:58 pm 22:58 Cloudy 77 24.8 41 4.9 28 28 SSW 14 22 29.70 1006 10 16 0.00 0.00
11:58 pm 23:58 Mostly Cloudy 79 26.2 40 4.5 25 25 SSW 22 35 29.66 1004 10 16 0.00 0.00

Powered by AerisWeather